Regional Weather Roundup
Issued by NWS Sioux Falls, SD

Home | Current Version | Previous Version | Text Only | Print | Product List | Glossary On
Versions: 1 2 3 4 5 6 7 8 9 10 11 12 13 14 15 16 17 18 19 20 21 22 23 24 25 26 27 28 29 30 31 32 33 34 35 36 37 38 39 40 41 42 43 44 45 46 47 48 49 50
000
ASUS43 KFSD 082110
RWRFSD

WEATHER ROUNDUP FOR SE SOUTH DAKOTA/SW MINNESOTA/NW IOWA
NATIONAL WEATHER SERVICE SIOUX FALLS SD
300 PM CST MON FEB 08 2016

NOTE: "FAIR" INDICATES FEW OR NO CLOUDS BELOW 12,000 FEET WITH NO
SIGNIFICANT WEATHER AND OR OBSTRUCTIONS TO VISIBILITY.


SDZ038>040-050-052>070-082200-
SOUTHEAST SOUTH DAKOTA

CITY           SKY/WX    TMP DP  RH WIND       PRES   REMARKS
BROOKINGS      FLURRIES  21  14  74 NW28G36   30.06R WCI   3
CHAMBERLAIN    PTSUNNY   34  19  54 NW28G35   30.20F WCI  20
HURON          CLOUDY    32  13  45 N26G38    30.15F WCI  18
MADISON        FAIR      23  18  80 N26G37    30.08F WCI   6
MITCHELL       CLOUDY    33  18  53 NW24G32   30.16F WCI  20
SIOUX FALLS    PTSUNNY   24  13  62 NW29G47   30.09S WCI   7
WINNER         FAIR      36  17  46 NW26G37   30.22F
YANKTON        SUNNY    N/A N/A N/A NW30G39   30.11F
$$

MNZ071-072-080-081-089-090-097-098-082200-
SOUTHWEST MINNESOTA

CITY           SKY/WX    TMP DP  RH WIND       PRES   REMARKS
FAIRMONT       CLOUDY    16   9  73 NW26G33   29.97R VSB 3/4 WCI  -3
JACKSON        CLOUDY    18  10  73 NW36G44   29.99S WCI  -3
LUVERNE        PTSUNNY   23  18  80 N22G31    30.08R WCI   8
MARSHALL       LGT SNOW  18  12  79 N30       30.05S WCI  -2
MONTEVIDEO     LGT SNOW  18  14  86 N31G39    30.09R WCI  -2
PIPESTONE      SUNNY     21  10  63 N20G36    30.05S WCI   6
REDWOOD FALLS  FLURRIES  18   8  65 NW23G37   30.03S WCI   0
TRACY          LGT SNOW  17  13  84 N24G36    30.06R VSB 3/4 WCI  -2
WINDOM         LGT SNOW  16  10  79 NW32G41   30.00R WCI  -5
WORTHINGTON    CLOUDY   N/A N/A N/A NW32G38   30.04R VSB 1/2
$$

IAZ001>003-012>014-020>022-031-032-NEZ013-014-SDZ071-082200-
NORTHWEST IOWA

CITY           SKY/WX    TMP DP  RH WIND       PRES   REMARKS
CHEROKEE       PTSUNNY   20  15  78 N17G26    30.07R WCI   6
DENISON        CLOUDY    21  16  79 N20G31    30.04S WCI   6
ESTHERVILLE    LGT SNOW  15  11  83 NW30G38   30.00S FOG     WCI  -5
LE MARS        FLURRIES  25  19  80 NW26G35   30.10R WCI   9
ORANGE CITY      N/A     21  16  79 N18G26    30.07R WCI   6
SHELDON        LGT SNOW  18  16  93 NW25G35   30.06R WCI  -1
SIOUX CITY     CLOUDY    29  17  61 NW35G45   30.08R WCI  12
SPENCER        MIX PCPN  18   9  68 NW29G36   30.03S WCI  -1
STORM LAKE     CLOUDY    19  14  79 N30G37    30.02S WCI   0
$$

ABBREVIATIONS USED IN REMARKS
   TC - TEMPERATURE IN CELSIUS
  WCI - WIND CHILL INDEX
   HX - HEAT INDEX
  VSB - VISIBILITY




USA.gov is the U.S. government's official web portal to all federal, state and local government web resources and services.